Time,TemperatureF,DewpointF,PressureIn,WindDirection,WindDirectionDegrees,WindSpeedMPH,WindSpeedGustMPH,Humidity,HourlyPrecipIn,Conditions,Clouds,dailyrainin,SoftwareType,DateUTC
2014-11-28 00:01:00,27.3,21.1,30.42,WNW,301,0.0,2.0,77,0.00,,,0.00,VWS V15.00,2014-11-28 05:01:00,
2014-11-28 00:06:00,27.3,21.4,30.42,WNW,301,0.0,2.0,78,0.00,,,0.00,VWS V15.00,2014-11-28 05:06:00,
2014-11-28 00:11:00,27.2,21.0,30.42,WNW,300,0.0,2.0,77,0.00,,,0.00,VWS V15.00,2014-11-28 05:11:00,
2014-11-28 00:16:00,27.2,21.3,30.43,WNW,300,1.0,2.0,78,0.00,,,0.00,VWS V15.00,2014-11-28 05:16:00,
2014-11-28 00:21:00,27.2,21.0,30.42,WNW,300,0.0,0.0,77,0.00,,,0.00,VWS V15.00,2014-11-28 05:21:00,
2014-11-28 00:26:00,27.2,21.0,30.43,WNW,300,0.0,3.0,77,0.00,,,0.00,VWS V15.00,2014-11-28 05:26:00,
2014-11-28 00:31:00,27.2,20.3,30.43,NW,315,0.0,0.0,75,0.00,,,0.00,VWS V15.00,2014-11-28 05:31:00,
2014-11-28 00:36:00,27.2,20.3,30.42,NW,307,1.0,3.0,75,0.00,,,0.00,VWS V15.00,2014-11-28 05:36:00,
2014-11-28 00:41:00,27.2,20.0,30.42,NW,307,0.0,2.0,74,0.00,,,0.00,VWS V15.00,2014-11-28 05:41:00,
2014-11-28 00:46:00,27.2,19.7,30.42,NW,306,0.0,3.0,73,0.00,,,0.00,VWS V15.00,2014-11-28 05:46:00,
2014-11-28 00:51:00,27.1,19.3,30.42,NW,306,0.0,2.0,72,0.00,,,0.00,VWS V15.00,2014-11-28 05:51:00,
2014-11-28 00:56:00,27.1,19.3,30.42,NW,306,0.0,2.0,72,0.00,,,0.00,VWS V15.00,2014-11-28 05:56:00,
2014-11-28 01:01:00,27.1,19.0,30.42,NW,306,0.0,2.0,71,0.00,,,0.00,VWS V15.00,2014-11-28 06:01:00,
2014-11-28 01:06:00,27.0,18.9,30.42,NW,306,0.0,2.0,71,0.00,,,0.00,VWS V15.00,2014-11-28 06:06:00,
2014-11-28 01:11:00,27.0,18.9,30.42,NW,306,0.0,0.0,71,0.00,,,0.00,VWS V15.00,2014-11-28 06:11:00,
2014-11-28 01:16:00,27.0,18.9,30.42,WNW,289,0.0,3.0,71,0.00,,,0.00,VWS V15.00,2014-11-28 06:16:00,
2014-11-28 01:21:00,26.9,19.1,30.41,WNW,289,0.0,2.0,72,0.00,,,0.00,VWS V15.00,2014-11-28 06:21:00,
2014-11-28 01:26:00,26.8,19.0,30.41,NW,315,3.0,3.0,72,0.00,,,0.00,VWS V15.00,2014-11-28 06:26:00,
2014-11-28 01:31:00,26.7,18.9,30.41,NW,315,0.0,0.0,72,0.00,,,0.00,VWS V15.00,2014-11-28 06:31:00,
2014-11-28 01:36:00,26.7,18.9,30.41,NW,315,0.0,0.0,72,0.00,,,0.00,VWS V15.00,2014-11-28 06:36:00,
2014-11-28 01:41:00,26.5,19.0,30.41,NW,315,0.0,1.0,73,0.00,,,0.00,VWS V15.00,2014-11-28 06:41:00,
2014-11-28 01:46:00,26.3,19.1,30.41,NW,315,0.0,1.0,74,0.00,,,0.00,VWS V15.00,2014-11-28 06:46:00,
2014-11-28 01:51:00,26.2,19.4,30.40,NW,315,0.0,0.0,75,0.00,,,0.00,VWS V15.00,2014-11-28 06:51:00,
2014-11-28 01:56:00,26.2,19.4,30.41,NW,315,0.0,0.0,75,0.00,,,0.00,VWS V15.00,2014-11-28 06:56:00,
2014-11-28 02:01:00,26.1,19.3,30.41,NW,315,0.0,0.0,75,0.00,,,0.00,VWS V15.00,2014-11-28 07:01:00,
2014-11-28 02:06:00,26.1,19.6,30.41,NW,315,0.0,0.0,76,0.00,,,0.00,VWS V15.00,2014-11-28 07:06:00,
2014-11-28 02:11:00,26.1,19.6,30.41,NW,315,0.0,0.0,76,0.00,,,0.00,VWS V15.00,2014-11-28 07:11:00,
2014-11-28 02:16:00,26.1,19.6,30.41,NW,315,0.0,0.0,76,0.00,,,0.00,VWS V15.00,2014-11-28 07:16:00,
2014-11-28 02:21:00,26.2,19.7,30.40,NW,315,0.0,0.0,76,0.00,,,0.00,VWS V15.00,2014-11-28 07:21:00,
2014-11-28 02:26:00,26.2,19.7,30.41,NW,315,0.0,1.0,76,0.00,,,0.00,VWS V15.00,2014-11-28 07:26:00,
2014-11-28 02:31:00,26.2,19.7,30.41,NW,315,0.0,0.0,76,0.00,,,0.00,VWS V15.00,2014-11-28 07:31:00,
2014-11-28 02:36:00,26.3,19.8,30.41,NW,315,0.0,0.0,76,0.00,,,0.00,VWS V15.00,2014-11-28 07:36:00,
2014-11-28 02:41:00,26.3,19.8,30.41,NW,315,0.0,0.0,76,0.00,,,0.00,VWS V15.00,2014-11-28 07:41:00,
2014-11-28 02:46:00,26.3,19.8,30.41,NW,315,0.0,0.0,76,0.00,,,0.00,VWS V15.00,2014-11-28 07:46:00,
2014-11-28 02:51:00,26.3,19.8,30.42,NW,315,0.0,0.0,76,0.00,,,0.00,VWS V15.00,2014-11-28 07:51:00,
2014-11-28 02:56:00,26.4,19.9,30.42,NW,315,0.0,0.0,76,0.00,,,0.00,VWS V15.00,2014-11-28 07:56:00,
2014-11-28 03:01:00,26.5,20.0,30.42,NW,315,0.0,0.0,76,0.00,,,0.00,VWS V15.00,2014-11-28 08:01:00,
2014-11-28 03:06:00,26.5,20.0,30.42,NW,315,0.0,1.0,76,0.00,,,0.00,VWS V15.00,2014-11-28 08:06:00,
2014-11-28 03:11:00,26.5,20.0,30.42,NW,315,0.0,0.0,76,0.00,,,0.00,VWS V15.00,2014-11-28 08:11:00,
2014-11-28 03:16:00,26.6,20.1,30.42,NW,315,0.0,0.0,76,0.00,,,0.00,VWS V15.00,2014-11-28 08:16:00,
2014-11-28 03:21:00,26.6,20.4,30.41,NW,315,0.0,0.0,77,0.00,,,0.00,VWS V15.00,2014-11-28 08:21:00,
2014-11-28 03:26:00,26.5,20.0,30.42,NW,315,0.0,0.0,76,0.00,,,0.00,VWS V15.00,2014-11-28 08:26:00,
2014-11-28 03:31:00,26.5,20.0,30.42,NW,315,0.0,0.0,76,0.00,,,0.00,VWS V15.00,2014-11-28 08:31:00,
2014-11-28 03:36:00,26.5,20.3,30.42,NW,315,0.0,0.0,77,0.00,,,0.00,VWS V15.00,2014-11-28 08:36:00,
2014-11-28 03:41:00,26.4,20.2,30.42,NW,315,0.0,0.0,77,0.00,,,0.00,VWS V15.00,2014-11-28 08:41:00,
2014-11-28 03:46:00,26.4,20.2,30.42,NW,315,0.0,0.0,77,0.00,,,0.00,VWS V15.00,2014-11-28 08:46:00,
2014-11-28 03:51:00,26.4,20.2,30.42,NW,315,0.0,0.0,77,0.00,,,0.00,VWS V15.00,2014-11-28 08:51:00,
2014-11-28 03:56:00,26.4,20.5,30.41,NW,315,0.0,0.0,78,0.00,,,0.00,VWS V15.00,2014-11-28 08:56:00,
2014-11-28 04:01:00,26.4,20.5,30.41,NW,315,0.0,0.0,78,0.00,,,0.00,VWS V15.00,2014-11-28 09:01:00,
2014-11-28 04:06:00,26.4,20.8,30.40,NW,315,0.0,1.0,79,0.00,,,0.00,VWS V15.00,2014-11-28 09:06:00,
2014-11-28 04:11:00,26.4,20.8,30.40,NW,315,0.0,0.0,79,0.00,,,0.00,VWS V15.00,2014-11-28 09:11:00,
2014-11-28 04:16:00,26.4,20.8,30.40,NW,315,0.0,1.0,79,0.00,,,0.00,VWS V15.00,2014-11-28 09:16:00,
2014-11-28 04:21:00,26.4,20.8,30.40,NW,315,0.0,0.0,79,0.00,,,0.00,VWS V15.00,2014-11-28 09:21:00,
2014-11-28 04:26:00,26.3,20.7,30.40,NW,315,0.0,0.0,79,0.00,,,0.00,VWS V15.00,2014-11-28 09:26:00,
2014-11-28 04:31:00,26.3,20.7,30.41,NW,315,0.0,0.0,79,0.00,,,0.00,VWS V15.00,2014-11-28 09:31:00,
2014-11-28 04:36:00,26.2,20.9,30.41,NW,315,0.0,0.0,80,0.00,,,0.00,VWS V15.00,2014-11-28 09:36:00,
2014-11-28 04:41:00,26.2,20.9,30.42,NW,315,0.0,0.0,80,0.00,,,0.00,VWS V15.00,2014-11-28 09:41:00,
2014-11-28 04:46:00,26.2,20.9,30.42,NW,315,0.0,0.0,80,0.00,,,0.00,VWS V15.00,2014-11-28 09:46:00,
2014-11-28 04:51:00,26.2,20.9,30.41,NW,315,0.0,0.0,80,0.00,,,0.00,VWS V15.00,2014-11-28 09:51:00,
2014-11-28 04:56:00,26.2,20.9,30.42,NW,315,0.0,1.0,80,0.00,,,0.00,VWS V15.00,2014-11-28 09:56:00,
2014-11-28 05:01:00,26.2,21.2,30.42,NW,315,0.0,0.0,81,0.00,,,0.00,VWS V15.00,2014-11-28 10:01:00,
2014-11-28 05:06:00,26.2,21.2,30.42,NW,315,0.0,0.0,81,0.00,,,0.00,VWS V15.00,2014-11-28 10:06:00,
2014-11-28 05:11:00,26.1,21.1,30.42,NW,315,0.0,0.0,81,0.00,,,0.00,VWS V15.00,2014-11-28 10:11:00,
2014-11-28 05:16:00,26.2,21.2,30.42,NW,315,0.0,0.0,81,0.00,,,0.00,VWS V15.00,2014-11-28 10:16:00,
2014-11-28 05:21:00,26.2,21.2,30.42,NW,315,0.0,0.0,81,0.00,,,0.00,VWS V15.00,2014-11-28 10:21:00,
2014-11-28 05:26:00,26.3,21.3,30.42,NW,315,0.0,1.0,81,0.00,,,0.00,VWS V15.00,2014-11-28 10:26:00,
2014-11-28 05:31:00,26.3,21.3,30.42,NW,315,0.0,0.0,81,0.00,,,0.00,VWS V15.00,2014-11-28 10:31:00,
2014-11-28 05:36:00,26.3,21.3,30.42,NW,315,0.0,0.0,81,0.00,,,0.00,VWS V15.00,2014-11-28 10:36:00,
2014-11-28 05:41:00,26.4,21.7,30.42,NW,315,0.0,0.0,82,0.00,,,0.00,VWS V15.00,2014-11-28 10:41:00,
2014-11-28 05:46:00,26.5,21.8,30.42,WSW,241,0.0,3.0,82,0.00,,,0.00,VWS V15.00,2014-11-28 10:46:00,
2014-11-28 05:51:00,26.5,22.0,30.42,WSW,237,2.0,4.0,83,0.00,,,0.00,VWS V15.00,2014-11-28 10:51:00,
2014-11-28 05:56:00,26.6,22.1,30.42,WSW,240,2.0,4.0,83,0.00,,,0.00,VWS V15.00,2014-11-28 10:56:00,
2014-11-28 06:01:00,26.6,22.4,30.42,WSW,257,2.0,4.0,84,0.00,,,0.00,VWS V15.00,2014-11-28 11:01:00,
2014-11-28 06:06:00,26.7,22.5,30.42,SW,229,2.0,5.0,84,0.00,,,0.00,VWS V15.00,2014-11-28 11:06:00,
2014-11-28 06:11:00,26.7,22.5,30.42,WSW,244,2.0,4.0,84,0.00,,,0.00,VWS V15.00,2014-11-28 11:11:00,
2014-11-28 06:16:00,26.6,22.7,30.42,WSW,244,3.0,6.0,85,0.00,,,0.00,VWS V15.00,2014-11-28 11:16:00,
2014-11-28 06:21:00,26.6,22.7,30.42,WSW,250,2.0,2.0,85,0.00,,,0.00,VWS V15.00,2014-11-28 11:21:00,
2014-11-28 06:25:00,26.6,22.7,30.42,WSW,249,1.0,5.0,85,0.00,,,0.00,VWS V15.00,2014-11-28 11:25:00,